[[{"header":{"parameterUnit":"m.s-1","parameterCategory":2,"la1":30.2991,"la2":30.254,"lo1":-89.0895,"lo2":-89.0444,"dy":0.0017,"dx":0.0017,"nx":28,"ny":28,"refTime":"2025-06-01T09:00:00:Z","depth":"0","parameterNumber":2,"parameterNumberName":"U-component_of_CURRENTS"},"data":[0,0,0,0,0,0,0,0,0,0,0,0,0,0,0,0,0,0,0,0,0,0,0,0,0,0,0,0,0,0,0,0,0,0,0,0,0,0,0,0,0,0,0,0,0,0,0,0,0,0,0,0,0,0,0,0,0,0,0.261,0.261,0,0.2615,0.2615,0.2615,0.2609,0.2609,0.2609,0.2609,0.2591,0.2591,0.2591,0,0,0,0,0,0,0,0,0,0,0,0,0,0.2628,0.2627,0.261,0.261,0.2611,0.2615,0.2615,0.2615,0.2609,0.2609,0.2609,0.2609,0.2592,0.2591,0.2591,0,0,0,0,0,0,0,0,0,0,0,0,0,0.2624,0.2627,0.261,0.2609,0.2609,0.2615,0.2615,0.2615,0.2609,0.2609,0.2609,0.2608,0.2592,0.2591,0.2591,0.2591,0,0,0.2589,0.2589,0,0,0,0,0,0,0,0,0.2624,0.2623,0.2609,0.2609,0.2609,0.2612,0.2615,0.2606,0.2609,0.2608,0.2609,0.2608,0.2597,0.2596,0.2596,0.2591,0.259,0.2589,0.2589,0.2589,0.2588,0,0,0,0,0,0,0,0.2625,0.2623,0.2611,0.2609,0.2609,0.2619,0.2617,0.2613,0.2602,0.2608,0.2608,0.261,0.2597,0.2597,0.2596,0.259,0.2589,0.2589,0.2588,0.2588,0.2624,0.2625,0,0,0,0,0,0,0.2624,0.2623,0.2611,0.2611,0.2617,0.2618,0.2617,0.261,0.2603,0.2602,0.261,0.261,0.2598,0.2596,0.2595,0.2636,0.2589,0.2588,0.2588,0.2622,0.2624,0.2625,0,0,0,0,0,0,0.2624,0.2623,0.2611,0.2619,0.2618,0.2618,0.2611,0.2611,0.261,0.2605,0.2603,0.261,0.2598,0.2596,0.2599,0.2634,0.2588,0.2587,0.2621,0.2623,0.2625,0.2692,0,0,0,0,0,0,0.2625,0.2622,0.2619,0.2618,0.2618,0.2613,0.2611,0.2611,0.2612,0.2612,0.2604,0.2603,0.2597,0.26,0.2599,0.2632,0.2587,0.2619,0.2622,0.2624,0.2689,0.2696,0.2703,0,0,0,0,0,0.2625,0.262,0.2619,0.2618,0.2612,0.2614,0.2614,0.2613,0.2613,0.2612,0.2614,0.2603,0.2614,0.26,0.2598,0.2633,0.2618,0.2621,0.2624,0.2685,0.2695,0.2703,0,0,0,0,0,0,0.2624,0.2619,0.2618,0.261,0.2612,0.2613,0.2614,0.2614,0.2616,0.2615,0.261,0.2608,0.263,0.2617,0.2601,0.2651,0.2618,0.2621,0.2666,0.2674,0.2681,0.2707,0.2587,0,0,0,0,0,0.2623,0.2617,0.2617,0.2611,0.2612,0.2614,0.2615,0.2615,0.2617,0.2617,0.2615,0.262,0.264,0.2643,0.2649,0.2666,0.2692,0.2689,0.2697,0.2703,0.2723,0.2832,0.2852,0.2635,0.2634,0.2634,0,0,0.262,0.2618,0.2613,0.2611,0.2612,0.2621,0.2614,0.2615,0.2636,0.2615,0.2636,0.2641,0.265,0.2679,0.2688,0.2671,0.2767,0.2706,0.2712,0.2729,0.2838,0.2859,0.2879,0.2636,0.2636,0.2636,0,0,0.2612,0.261,0.2603,0.261,0.2614,0.2623,0.2625,0.2628,0.2642,0.2659,0.2666,0.2697,0.2697,0.2732,0.2747,0.2796,0.2803,0.2788,0.2846,0.2952,0.2972,0.2989,0.3005,0.3024,0.2792,0.2792,0.2792,0,0.261,0.2604,0.2602,0.2606,0.2625,0.2626,0.2641,0.2656,0.2663,0.27,0.2672,0.2748,0.2736,0.2825,0.2832,0.2817,0.2847,0.2812,0.2965,0.2983,0.3001,0.3013,0.3033,0.2795,0.2795,0.2795,0.2794,0,0.26,0.2604,0.2604,0.2616,0.2635,0.2646,0.2675,0.27,0.2718,0.2748,0.2828,0.2835,0.2891,0.289,0.2867,0.2987,0.2955,0.2964,0.2949,0.3027,0.3034,0.3053,0.28,0.2799,0.2798,0.2797,0,0,0.2575,0.2594,0.2595,0.2616,0.2648,0.2664,0.2717,0.278,0.2842,0.2866,0.2964,0.2994,0.3017,0.3036,0.3036,0.3108,0.3217,0.308,0.3084,0.3104,0.3399,0.3209,0.3212,0.3265,0.327,0.3274,0.3338,0,0.2572,0.2579,0.2605,0.2643,0.2655,0.271,0.2768,0.2832,0.289,0.2979,0.3044,0.3117,0.3071,0.3106,0.3179,0.3217,0.328,0.3195,0.3313,0.3314,0.3147,0.3234,0.3038,0.3066,0.3357,0.336,0.3363,0,0.2554,0.2566,0.2587,0.2671,0.2688,0.2722,0.2845,0.2902,0.3036,0.309,0.3196,0.324,0.3346,0.3298,0.3435,0.3385,0.3397,0.3417,0.3422,0.3243,0.3165,0.3043,0.3091,0.3002,0.3393,0.339,0.3388,0,0.252,0.2568,0.2589,0.2609,0.269,0.2741,0.2807,0.2931,0.3017,0.3171,0.325,0.3384,0.3451,0.3534,0.3532,0.3513,0.3664,0.365,0.3493,0.3477,0.3331,0.3293,0.3317,0.3773,0.3773,0.3773,0.3773,0,0.2502,0.2524,0.2572,0.258,0.2655,0.2725,0.284,0.2928,0.3081,0.3193,0.3303,0.3406,0.3523,0.3602,0.3603,0.3584,0.3728,0.352,0.3506,0.3336,0.33,0.3229,0.3202,0.3775,0.3775,0.3774,0.3774,0,0.2452,0.2476,0.2511,0.2591,0.2629,0.2682,0.2848,0.2937,0.3075,0.323,0.3286,0.3458,0.3537,0.3597,0.3708,0.3643,0.3537,0.3618,0.3351,0.3303,0.3024,0.3007,0.2909,0.284,0.3467,0.3463,0.346,0,0.2425,0.2423,0.25,0.2535,0.2571,0.267,0.2749,0.2911,0.301,0.3242,0.3309,0.3443,0.3494,0.3551,0.3473,0.3436,0.3396,0.3232,0.316,0.2991,0.2968,0.2872,0.2818,0.2984,0.2977,0.2971,0.2967,0,0.238,0.2398,0.2424,0.249,0.256,0.2657,0.2775,0.2849,0.3039,0.3144,0.3272,0.3334,0.3356,0.3218,0.3144,0.311,0.3034,0.3107,0.3062,0.2691,0.247,0.24,0.2906,0.2916,0.2921,0.2925,0.2928,0.293,0.2348,0.2352,0.2386,0.2448,0.2531,0.261,0.2654,0.2767,0.2874,0.2971,0.3105,0.3081,0.3013,0.2859,0.281,0.2563,0.2641,0.246,0.2482,0.2422,0.2266,0.2592,0.2501,0.2504,0.2506,0.2508,0.2509,0,0.2296,0.2304,0.2354,0.2413,0.2464,0.2539,0.2645,0.265,0.2686,0.2744,0.2775,0.2616,0.2445,0.2377,0.212,0.1974,0.1929,0.1926,0.1811,0.1818,0.2225,0.2113,0.1776,0.1776,0.1776,0.1777,0.1777,0.1777,0.227,0.2265,0.2278,0.232,0.2367,0.2389,0.2414,0.2412,0.2421,0.2295,0.2164,0.2125,0.2066,0.1848,0.1635,0.1598,0.152,0.136,0.1465,0.1797,0.1851,0.1902,0.1792,0.1394,0.1394,0.0952,0.0949,0.0946]},{"header":{"parameterUnit":"m.s-1","parameterCategory":2,"la1":30.2991,"la2":30.254,"lo1":-89.0895,"lo2":-89.0444,"dy":0.0017,"dx":0.0017,"nx":28,"ny":28,"refTime":"2025-06-01T09:00:00:Z","depth":"0","parameterNumber":3,"parameterNumberName":"V-component_of_CURRENTS"},"data":[0,0,0,0,0,0,0,0,0,0,0,0,0,0,0,0,0,0,0,0,0,0,0,0,0,0,0,0,0,0,0,0,0,0,0,0,0,0,0,0,0,0,0,0,0,0,0,0,0,0,0,0,0,0,0,0,0,0,0.0212,0.0212,0,0.0201,0.0201,0.0201,0.019,0.019,0.019,0.019,0.0177,0.0177,0.0177,0,0,0,0,0,0,0,0,0,0,0,0,0,0.0199,0.0199,0.0212,0.0212,0.0212,0.0201,0.0201,0.0201,0.019,0.019,0.019,0.019,0.0177,0.0177,0.0177,0,0,0,0,0,0,0,0,0,0,0,0,0,0.0197,0.0199,0.0212,0.0206,0.0205,0.0201,0.0201,0.0201,0.019,0.019,0.019,0.019,0.0177,0.0177,0.0176,0.0177,0,0,0.0175,0.0175,0,0,0,0,0,0,0,0,0.0198,0.0198,0.0207,0.0206,0.0206,0.0197,0.0192,0.0193,0.019,0.0195,0.019,0.019,0.0184,0.0183,0.0181,0.0176,0.0176,0.0175,0.0175,0.0175,0.0175,0,0,0,0,0,0,0,0.0198,0.0198,0.0207,0.0207,0.0206,0.0195,0.0195,0.0192,0.019,0.0195,0.0194,0.0194,0.0184,0.0181,0.018,0.0176,0.0175,0.0175,0.0175,0.0175,0.0165,0.0165,0,0,0,0,0,0,0.0202,0.0199,0.0208,0.0207,0.0202,0.0195,0.0195,0.02,0.019,0.0189,0.0194,0.0193,0.0182,0.0181,0.018,0.0183,0.0175,0.0175,0.0174,0.0165,0.0165,0.0165,0,0,0,0,0,0,0.0202,0.0203,0.0208,0.0203,0.0203,0.0196,0.0201,0.02,0.0199,0.019,0.0188,0.0195,0.0182,0.018,0.0181,0.0183,0.0174,0.0174,0.0165,0.0165,0.0165,0.0188,0,0,0,0,0,0,0.0201,0.0203,0.0208,0.0203,0.0203,0.0212,0.0201,0.02,0.0199,0.0198,0.019,0.0189,0.0181,0.0182,0.0181,0.0182,0.0174,0.0165,0.0165,0.0165,0.0187,0.0189,0.019,0,0,0,0,0,0.0201,0.0211,0.0208,0.0209,0.021,0.0212,0.0211,0.0205,0.0199,0.0203,0.0197,0.0189,0.018,0.0182,0.0181,0.0182,0.0165,0.0165,0.0165,0.0187,0.0189,0.019,0,0,0,0,0,0,0.0208,0.0211,0.0207,0.0218,0.0217,0.0211,0.0214,0.0208,0.0205,0.0204,0.0193,0.0192,0.0191,0.0183,0.0185,0.0177,0.0169,0.0169,0.0187,0.0188,0.019,0.0204,0.0173,0,0,0,0,0,0.0212,0.0221,0.0218,0.0227,0.0227,0.022,0.022,0.0216,0.0213,0.0211,0.0205,0.0196,0.0189,0.0187,0.0181,0.0181,0.0193,0.0178,0.018,0.0181,0.0191,0.0224,0.023,0.0164,0.0164,0.0164,0,0,0.0216,0.022,0.0224,0.0229,0.0227,0.0234,0.022,0.0223,0.0227,0.021,0.0216,0.0204,0.0191,0.0189,0.0188,0.0183,0.0202,0.0181,0.0182,0.0192,0.0225,0.0232,0.0238,0.0164,0.0164,0.0164,0,0,0.0234,0.0234,0.0248,0.0249,0.025,0.0245,0.0248,0.0244,0.0241,0.0242,0.0228,0.0222,0.0213,0.0205,0.0198,0.0205,0.021,0.0195,0.0215,0.0247,0.0253,0.0259,0.027,0.0277,0.0195,0.0195,0.0195,0,0.024,0.0258,0.0252,0.0264,0.0268,0.0253,0.0266,0.0261,0.0257,0.0261,0.0248,0.0242,0.0222,0.0228,0.0219,0.0209,0.0224,0.021,0.0251,0.0257,0.0262,0.0273,0.028,0.0196,0.0196,0.0196,0.0196,0,0.0269,0.0281,0.0289,0.0301,0.0302,0.0311,0.0302,0.0304,0.0295,0.0293,0.0298,0.0276,0.0279,0.0259,0.0235,0.0257,0.0253,0.0252,0.0252,0.0271,0.028,0.0287,0.0198,0.0198,0.0197,0.0197,0,0,0.029,0.0307,0.0311,0.0323,0.0322,0.0328,0.0333,0.034,0.0362,0.0343,0.0376,0.0333,0.0329,0.0321,0.0296,0.0304,0.0333,0.029,0.0292,0.031,0.0398,0.0366,0.037,0.0347,0.0349,0.035,0.0385,0,0.0317,0.0352,0.0348,0.0374,0.0391,0.0377,0.0389,0.0391,0.0394,0.0423,0.0397,0.0419,0.0352,0.0364,0.0358,0.0357,0.0355,0.0324,0.0369,0.037,0.0347,0.0378,0.0393,0.0423,0.0391,0.0393,0.0393,0,0.0349,0.037,0.0403,0.0423,0.0429,0.0439,0.0465,0.0476,0.0499,0.0507,0.0516,0.0512,0.0515,0.0465,0.0465,0.0453,0.0421,0.0406,0.0408,0.0378,0.0352,0.04,0.0437,0.04,0.0404,0.0403,0.0402,0,0.038,0.0408,0.0437,0.0443,0.0462,0.0473,0.0485,0.0505,0.0541,0.0578,0.0627,0.0615,0.065,0.0611,0.0552,0.0527,0.056,0.0528,0.0463,0.046,0.0481,0.0477,0.0497,0.0527,0.0527,0.0527,0.0526,0,0.0415,0.0437,0.0456,0.0473,0.0517,0.0513,0.0572,0.058,0.0634,0.0714,0.0683,0.0757,0.0694,0.0697,0.0612,0.0566,0.061,0.0478,0.0476,0.0485,0.0481,0.0456,0.0416,0.0528,0.0528,0.0527,0.0527,0,0.0446,0.0456,0.0495,0.0522,0.0535,0.0569,0.0634,0.069,0.0726,0.0838,0.0865,0.0896,0.0904,0.0813,0.0772,0.0668,0.0583,0.057,0.0569,0.0565,0.0451,0.0412,0.0421,0.0403,0.0518,0.0517,0.0517,0,0.0466,0.049,0.0536,0.0572,0.0587,0.0642,0.0696,0.0735,0.0811,0.0935,0.1007,0.1044,0.1093,0.0995,0.0826,0.0684,0.0604,0.0579,0.0517,0.0459,0.0415,0.0388,0.0371,0.0552,0.0552,0.0552,0.0552,0,0.0504,0.052,0.0555,0.0632,0.0687,0.0765,0.0845,0.092,0.1003,0.1111,0.1249,0.1299,0.1205,0.1092,0.087,0.0749,0.0557,0.0571,0.0536,0.0463,0.0416,0.0394,0.0496,0.0552,0.0552,0.0552,0.0552,0.0552,0.0532,0.0569,0.0621,0.0695,0.077,0.0881,0.0965,0.1081,0.1225,0.1396,0.1421,0.1513,0.1319,0.1032,0.087,0.0577,0.0563,0.0484,0.0447,0.0431,0.0397,0.0477,0.0508,0.0508,0.0507,0.0507,0.0507,0,0.0566,0.0612,0.0684,0.0776,0.0874,0.0906,0.1063,0.1173,0.1366,0.1511,0.1629,0.1572,0.1352,0.1073,0.0681,0.0499,0.0431,0.0399,0.0384,0.0376,0.0484,0.0467,0.0462,0.0462,0.0462,0.0462,0.0463,0.0463,0.0585,0.0652,0.0691,0.0844,0.0922,0.1069,0.1168,0.1345,0.1478,0.1662,0.1707,0.1713,0.1504,0.0901,0.0526,0.0429,0.0333,0.0285,0.0242,0.0327,0.0332,0.0338,0.0316,0.0279,0.0279,0.0172,0.0171,0.017]}],[{"header":{"parameterUnit":"m.s-1","parameterCategory":2,"la1":30.2991,"la2":30.254,"lo1":-89.0895,"lo2":-89.0444,"dy":0.0017,"dx":0.0017,"nx":28,"ny":28,"refTime":"2025-06-01T09:00:00:Z","depth":"2","parameterNumber":2,"parameterNumberName":"U-component_of_CURRENTS"},"data":[0,0,0,0,0,0,0,0,0,0,0,0,0,0,0,0,0,0,0,0,0,0,0,0,0,0,0,0,0,0,0,0,0,0,0,0,0,0,0,0,0,0,0,0,0,0,0,0,0,0,0,0,0,0,0,0,0,0,0.2058,0.2058,0,0.2045,0.2045,0.2045,0.2029,0.2029,0.2029,0.2029,0.2018,0.2017,0.2017,0,0,0,0,0,0,0,0,0,0,0,0,0,0.2071,0.2071,0.2058,0.2058,0.2058,0.2045,0.2045,0.2045,0.2029,0.2029,0.2029,0.2029,0.2018,0.2017,0.2017,0,0,0,0,0,0,0,0,0,0,0,0,0,0.206,0.2071,0.2058,0.2051,0.205,0.2046,0.2045,0.2044,0.2029,0.2029,0.2029,0.2029,0.2018,0.2017,0.2017,0.2014,0,0,0.2016,0.2015,0,0,0,0,0,0,0,0,0.2061,0.2059,0.2052,0.2052,0.2051,0.2041,0.2046,0.2035,0.2029,0.2034,0.2029,0.2029,0.2027,0.2026,0.202,0.2014,0.2013,0.2015,0.2015,0.2015,0.2015,0,0,0,0,0,0,0,0.2061,0.206,0.205,0.2052,0.2051,0.2049,0.2047,0.2043,0.2029,0.2034,0.2033,0.2036,0.2027,0.202,0.2019,0.2013,0.2015,0.2015,0.2015,0.2015,0.2043,0.2044,0,0,0,0,0,0,0.2068,0.206,0.2051,0.205,0.2059,0.2049,0.2047,0.2042,0.2029,0.2027,0.2036,0.2035,0.2021,0.202,0.2019,0.2055,0.2015,0.2015,0.2014,0.2042,0.2043,0.2044,0,0,0,0,0,0,0.2069,0.2067,0.2051,0.2058,0.2056,0.2049,0.2044,0.2042,0.2046,0.2031,0.2029,0.2044,0.2021,0.202,0.203,0.2053,0.2014,0.2014,0.2041,0.2042,0.2044,0.2101,0,0,0,0,0,0,0.2069,0.2067,0.207,0.2058,0.2056,0.2054,0.2044,0.2042,0.2049,0.2048,0.2037,0.2035,0.2021,0.2031,0.203,0.2051,0.2014,0.2039,0.2041,0.2043,0.2097,0.2104,0.2109,0,0,0,0,0,0.2069,0.207,0.2069,0.2069,0.2058,0.2055,0.2053,0.2047,0.2049,0.2051,0.2051,0.2036,0.2042,0.2032,0.203,0.2052,0.2038,0.2041,0.2043,0.2095,0.2103,0.2109,0,0,0,0,0,0,0.2075,0.2068,0.2068,0.2066,0.2065,0.2053,0.2056,0.2056,0.2057,0.2061,0.2048,0.2046,0.2061,0.2051,0.2039,0.2066,0.2039,0.2041,0.2079,0.2086,0.2092,0.2117,0.2013,0,0,0,0,0,0.2079,0.2077,0.2073,0.2073,0.2074,0.207,0.2071,0.2068,0.2067,0.2067,0.2063,0.2063,0.2067,0.2073,0.2067,0.2084,0.2103,0.2098,0.2104,0.2109,0.2129,0.2196,0.2211,0.2052,0.2052,0.2052,0,0,0.208,0.2078,0.2077,0.2075,0.2073,0.2077,0.2069,0.2075,0.2088,0.2067,0.2085,0.208,0.2075,0.2091,0.2098,0.2088,0.2159,0.2112,0.2116,0.2134,0.2201,0.2216,0.223,0.2053,0.2053,0.2053,0,0,0.2081,0.2083,0.2082,0.2085,0.209,0.209,0.2097,0.2095,0.2106,0.212,0.2114,0.2138,0.2127,0.2144,0.2148,0.2189,0.2185,0.2173,0.2231,0.2296,0.2311,0.2324,0.235,0.2365,0.2182,0.2182,0.2183,0,0.2087,0.2082,0.2083,0.2086,0.2096,0.2099,0.2108,0.2119,0.2124,0.2149,0.2133,0.2163,0.2161,0.2206,0.222,0.2206,0.2225,0.2203,0.2307,0.232,0.2332,0.2357,0.2373,0.2185,0.2185,0.2185,0.2185,0,0.2084,0.2087,0.209,0.2096,0.2108,0.2116,0.2134,0.2155,0.2171,0.2188,0.2234,0.2237,0.2264,0.2263,0.2255,0.2336,0.2314,0.2303,0.2292,0.2352,0.2373,0.2389,0.219,0.2189,0.2188,0.2187,0,0,0.2075,0.2086,0.2087,0.2097,0.2117,0.2125,0.2165,0.2205,0.2249,0.2262,0.2327,0.2343,0.2359,0.2367,0.2364,0.2421,0.252,0.2404,0.2406,0.2437,0.2642,0.2493,0.2495,0.2528,0.2531,0.2534,0.2615,0,0.2073,0.2079,0.2093,0.2112,0.2118,0.2152,0.2194,0.2239,0.2278,0.2343,0.2381,0.2434,0.2394,0.2426,0.2474,0.2521,0.2566,0.2497,0.2574,0.2576,0.2443,0.2511,0.228,0.2322,0.263,0.2632,0.2634,0,0.2062,0.207,0.2083,0.2129,0.214,0.2164,0.2244,0.229,0.2386,0.2418,0.2479,0.2515,0.2609,0.2567,0.2672,0.2629,0.2643,0.2664,0.2667,0.2525,0.2457,0.2315,0.2338,0.266,0.2658,0.2656,0.2654,0,0.2041,0.2067,0.208,0.209,0.214,0.2178,0.2231,0.2319,0.2378,0.2495,0.254,0.2635,0.2689,0.2751,0.2768,0.2751,0.2864,0.2848,0.2717,0.2705,0.2523,0.2488,0.2924,0.2924,0.2924,0.2923,0.2923,0,0.2025,0.2035,0.2074,0.2077,0.213,0.2182,0.2259,0.2326,0.2436,0.25,0.2588,0.2636,0.2742,0.2801,0.2821,0.28,0.2905,0.2745,0.273,0.2529,0.2496,0.2799,0.2783,0.2926,0.2926,0.2925,0.2925,0,0.199,0.2008,0.2027,0.2085,0.2114,0.2161,0.2272,0.2327,0.243,0.252,0.257,0.2684,0.2747,0.2798,0.2897,0.2839,0.2865,0.2818,0.2549,0.2499,0.2655,0.2642,0.273,0.2726,0.2722,0.2719,0.2716,0,0.1969,0.197,0.2025,0.2043,0.2071,0.2145,0.2196,0.2316,0.2376,0.2516,0.2557,0.266,0.2662,0.2726,0.2685,0.2681,0.2768,0.2453,0.2379,0.2666,0.2643,0.2635,0.2626,0.2163,0.2156,0.215,0.2146,0,0.1931,0.1951,0.1965,0.2005,0.2051,0.2095,0.2184,0.2214,0.2341,0.2396,0.2457,0.2487,0.2513,0.2394,0.2368,0.2343,0.2444,0.2334,0.2746,0.2224,0.2131,0.2108,0.2119,0.2096,0.2101,0.2104,0.2107,0.2109,0.1906,0.1906,0.1926,0.1958,0.2003,0.2017,0.2014,0.2076,0.2122,0.2157,0.2272,0.2219,0.223,0.2067,0.1991,0.1935,0.2114,0.2031,0.205,0.2074,0.1971,0.1874,0.177,0.1773,0.1776,0.1778,0.178,0,0.1859,0.186,0.1879,0.1892,0.189,0.1952,0.1978,0.1924,0.1889,0.1948,0.1958,0.1765,0.1656,0.168,0.1495,0.1471,0.1479,0.1426,0.1426,0.1475,0.152,0.1389,0.1035,0.1032,0.103,0.1029,0,0,0.1834,0.1813,0.1809,0.177,0.178,0.1738,0.1715,0.1637,0.1631,0.1538,0.1506,0.1608,0.1632,0.133,0.1268,0.112,0.1302,0.1074,0.167,0.1721,0.1763,0.186,0.1713,0,0,0,0,0]},{"header":{"parameterUnit":"m.s-1","parameterCategory":2,"la1":30.2991,"la2":30.254,"lo1":-89.0895,"lo2":-89.0444,"dy":0.0017,"dx":0.0017,"nx":28,"ny":28,"refTime":"2025-06-01T09:00:00:Z","depth":"2","parameterNumber":3,"parameterNumberName":"V-component_of_CURRENTS"},"data":[0,0,0,0,0,0,0,0,0,0,0,0,0,0,0,0,0,0,0,0,0,0,0,0,0,0,0,0,0,0,0,0,0,0,0,0,0,0,0,0,0,0,0,0,0,0,0,0,0,0,0,0,0,0,0,0,0,0,0.0205,0.0205,0,0.0195,0.0195,0.0195,0.0191,0.0191,0.0191,0.0191,0.0184,0.0183,0.0183,0,0,0,0,0,0,0,0,0,0,0,0,0,0.0197,0.0198,0.0205,0.0205,0.0205,0.0195,0.0195,0.0195,0.0191,0.0191,0.0191,0.0191,0.0184,0.0183,0.0183,0,0,0,0,0,0,0,0,0,0,0,0,0,0.0195,0.0198,0.0205,0.0202,0.0201,0.0195,0.0195,0.0195,0.0191,0.0191,0.0191,0.0191,0.0184,0.0183,0.0183,0.018,0,0,0.0182,0.0182,0,0,0,0,0,0,0,0,0.0195,0.0195,0.0202,0.0202,0.0202,0.0194,0.0189,0.019,0.0191,0.0195,0.0191,0.0191,0.0188,0.0187,0.0185,0.0179,0.0179,0.0182,0.0182,0.0182,0.0182,0,0,0,0,0,0,0,0.0195,0.0196,0.0201,0.0202,0.0202,0.0193,0.0193,0.0189,0.0191,0.0194,0.0194,0.0193,0.0187,0.0185,0.0184,0.0179,0.0182,0.0182,0.0182,0.0181,0.0172,0.0172,0,0,0,0,0,0,0.0198,0.0196,0.0201,0.0201,0.0199,0.0193,0.0193,0.0196,0.0191,0.019,0.0193,0.0193,0.0185,0.0185,0.0184,0.0191,0.0182,0.0181,0.0181,0.0172,0.0172,0.0172,0,0,0,0,0,0,0.0198,0.0199,0.0202,0.0198,0.0198,0.0193,0.0197,0.0196,0.0196,0.019,0.0189,0.0194,0.0185,0.0185,0.0185,0.019,0.0181,0.0181,0.0172,0.0172,0.0172,0.0197,0,0,0,0,0,0,0.0198,0.0199,0.0203,0.0198,0.0198,0.0203,0.0197,0.0196,0.0195,0.0195,0.019,0.0189,0.0185,0.0185,0.0185,0.0189,0.0181,0.0172,0.0172,0.0172,0.0196,0.0198,0.0199,0,0,0,0,0,0.0198,0.0205,0.0203,0.0204,0.0203,0.0203,0.0202,0.0198,0.0195,0.0198,0.0194,0.019,0.0184,0.0185,0.0184,0.0189,0.0172,0.0172,0.0172,0.0196,0.0198,0.0199,0,0,0,0,0,0,0.0203,0.0205,0.0203,0.021,0.0208,0.0202,0.0204,0.02,0.0198,0.0198,0.0191,0.0191,0.0192,0.0185,0.0187,0.0185,0.0176,0.0176,0.0195,0.0197,0.0198,0.0218,0.018,0,0,0,0,0,0.0206,0.0213,0.0209,0.0216,0.0215,0.0209,0.0208,0.0206,0.0203,0.0202,0.0199,0.0193,0.019,0.0189,0.0185,0.0186,0.0187,0.0186,0.0188,0.0189,0.0203,0.0216,0.022,0.0171,0.0171,0.0171,0,0,0.0209,0.0211,0.0215,0.0217,0.0215,0.0221,0.0209,0.021,0.0216,0.0202,0.0209,0.02,0.0191,0.0193,0.0192,0.0188,0.02,0.0189,0.019,0.0204,0.0216,0.0221,0.0226,0.0171,0.0171,0.0171,0,0,0.0222,0.0221,0.0232,0.0232,0.0232,0.0229,0.0231,0.0227,0.0226,0.0229,0.022,0.0216,0.021,0.0207,0.0204,0.0211,0.0208,0.0204,0.0229,0.024,0.0245,0.0249,0.0242,0.0246,0.0204,0.0204,0.0204,0,0.0226,0.0241,0.0234,0.0244,0.0249,0.0235,0.0247,0.0244,0.0241,0.025,0.0235,0.0238,0.022,0.0234,0.0228,0.0216,0.0218,0.0224,0.0244,0.0248,0.0252,0.0244,0.0248,0.0205,0.0205,0.0205,0.0205,0,0.0248,0.0259,0.0265,0.0276,0.0277,0.0285,0.028,0.0285,0.028,0.0281,0.0293,0.0272,0.028,0.0263,0.0244,0.0262,0.0252,0.0246,0.0244,0.0259,0.0249,0.0252,0.0207,0.0207,0.0206,0.0206,0,0,0.0264,0.0279,0.0282,0.0296,0.0296,0.0304,0.0313,0.0328,0.0354,0.0337,0.0373,0.0341,0.0338,0.0334,0.0312,0.0309,0.0315,0.0288,0.0288,0.0289,0.0333,0.0305,0.0305,0.0318,0.0319,0.032,0.031,0,0.0286,0.0317,0.0315,0.0343,0.0359,0.0353,0.0371,0.038,0.0388,0.0418,0.0398,0.042,0.0363,0.0375,0.036,0.0339,0.0328,0.0318,0.0313,0.0312,0.0292,0.031,0.0314,0.0306,0.0314,0.0314,0.0314,0,0.0312,0.0331,0.0363,0.0393,0.04,0.0413,0.0452,0.0468,0.0498,0.0509,0.0521,0.0514,0.0509,0.0462,0.043,0.0429,0.0382,0.0353,0.0352,0.0325,0.0291,0.0294,0.0311,0.032,0.0319,0.0319,0.0319,0,0.0338,0.0368,0.0397,0.0404,0.0432,0.0449,0.0468,0.0499,0.0543,0.0578,0.0623,0.0605,0.0618,0.0567,0.0485,0.0469,0.0449,0.0422,0.0349,0.0346,0.0349,0.0345,0.0401,0.0401,0.0401,0.0401,0.0401,0,0.0368,0.0393,0.0414,0.043,0.0482,0.0484,0.0554,0.0571,0.0631,0.0708,0.0678,0.0733,0.0648,0.0621,0.0531,0.0452,0.0484,0.0364,0.035,0.0354,0.035,0.0365,0.036,0.0401,0.0401,0.0401,0.0401,0,0.0394,0.0405,0.0445,0.0478,0.0495,0.0534,0.0617,0.068,0.0718,0.082,0.0842,0.0844,0.0806,0.0703,0.062,0.0522,0.0443,0.04,0.0397,0.0383,0.0318,0.0315,0.0334,0.0333,0.0332,0.0331,0.0331,0,0.041,0.0432,0.0483,0.0521,0.0538,0.0604,0.0667,0.0722,0.0802,0.0895,0.0957,0.0944,0.0944,0.0797,0.0633,0.0479,0.0445,0.0367,0.0332,0.0331,0.0316,0.0314,0.0312,0.0338,0.0338,0.0338,0.0337,0,0.0443,0.0459,0.0494,0.0573,0.0635,0.0726,0.0815,0.0893,0.0978,0.1053,0.1136,0.1137,0.0999,0.0846,0.062,0.0507,0.0391,0.0354,0.0381,0.0349,0.0334,0.0319,0.0317,0.0334,0.0335,0.0335,0.0335,0.0335,0.0468,0.0503,0.0553,0.0631,0.0713,0.0833,0.0921,0.1024,0.1145,0.1252,0.1246,0.123,0.1058,0.0766,0.058,0.0372,0.0387,0.0296,0.0299,0.0301,0.0298,0.0281,0.0271,0.0271,0.0271,0.0271,0.0271,0,0.05,0.0543,0.0613,0.0709,0.0812,0.0852,0.1015,0.1101,0.1237,0.1303,0.1346,0.1159,0.0986,0.0777,0.0481,0.0307,0.0289,0.0231,0.0255,0.026,0.0263,0.0259,0.0221,0.022,0.0219,0.0219,0,0,0.0517,0.0582,0.0617,0.0772,0.0853,0.1001,0.1101,0.1213,0.1288,0.1338,0.1318,0.128,0.1037,0.0808,0.0576,0.0403,0.0365,0.0355,0.0414,0.0475,0.0481,0.032,0.032,0,0,0,0,0]}],[{"header":{"parameterUnit":"m.s-1","parameterCategory":2,"la1":30.2991,"la2":30.254,"lo1":-89.0895,"lo2":-89.0444,"dy":0.0017,"dx":0.0017,"nx":28,"ny":28,"refTime":"2025-06-01T09:00:00:Z","depth":"4","parameterNumber":2,"parameterNumberName":"U-component_of_CURRENTS"},"data":[0,0,0,0,0,0,0,0,0,0,0,0,0,0,0,0,0,0,0,0,0,0,0,0,0,0,0,0,0,0,0,0,0,0,0,0,0,0,0,0,0,0,0,0,0,0,0,0,0,0,0,0,0,0,0,0,0,0,0.1199,0.1199,0,0.1194,0.1194,0.1193,0.1211,0.1212,0.1212,0.1213,0.1214,0.1213,0.1213,0,0,0,0,0,0,0,0,0,0,0,0,0,0.1189,0.1189,0.1199,0.1199,0.1199,0.1194,0.1194,0.1193,0.1211,0.1212,0.1213,0.1213,0.1214,0.1213,0.1213,0,0,0,0,0,0,0,0,0,0,0,0,0,0.1186,0.1189,0.1199,0.1209,0.1211,0.1194,0.1194,0.1193,0.121,0.1212,0.1213,0.1214,0.1215,0.1214,0.1212,0.1182,0,0,0.1209,0.1209,0,0,0,0,0,0,0,0,0.1187,0.1186,0.1208,0.1209,0.121,0.1207,0.1191,0.1191,0.121,0.1207,0.1213,0.1215,0.1213,0.1212,0.1204,0.1182,0.1182,0.1209,0.1208,0.1208,0.1208,0,0,0,0,0,0,0,0.1187,0.1187,0.1194,0.1208,0.1209,0.1203,0.1204,0.119,0.1201,0.1208,0.121,0.1214,0.1214,0.1205,0.1205,0.1182,0.1209,0.1208,0.1207,0.1207,0.1228,0.1229,0,0,0,0,0,0,0.1194,0.1187,0.1194,0.1194,0.1204,0.1203,0.1203,0.1204,0.1201,0.1203,0.1213,0.1214,0.1207,0.1206,0.1205,0.1239,0.1208,0.1207,0.1206,0.1227,0.1228,0.1229,0,0,0,0,0,0,0.1194,0.1194,0.1194,0.1193,0.1193,0.1202,0.1202,0.1203,0.1226,0.1206,0.1207,0.1238,0.1207,0.1206,0.1219,0.1237,0.1206,0.1205,0.1225,0.1227,0.1229,0.1262,0,0,0,0,0,0,0.1193,0.1194,0.1209,0.1193,0.1193,0.1206,0.1201,0.1203,0.1226,0.123,0.1227,0.1227,0.1208,0.122,0.1218,0.1235,0.1205,0.1224,0.1226,0.1228,0.126,0.1265,0.127,0,0,0,0,0,0.1193,0.1204,0.121,0.1212,0.121,0.1207,0.1207,0.1214,0.1227,0.1239,0.124,0.1229,0.1233,0.122,0.1217,0.1234,0.1223,0.1225,0.1228,0.1258,0.1264,0.127,0,0,0,0,0,0,0.1208,0.1206,0.1213,0.1224,0.1228,0.1212,0.1228,0.1232,0.124,0.1254,0.1235,0.1234,0.1254,0.1242,0.1228,0.125,0.1229,0.1232,0.1253,0.1259,0.1264,0.1275,0.1204,0,0,0,0,0,0.1218,0.1229,0.1224,0.1238,0.1244,0.1242,0.1249,0.1254,0.1254,0.1261,0.1259,0.126,0.1256,0.1258,0.1254,0.1258,0.1272,0.1272,0.1277,0.1281,0.129,0.1341,0.1352,0.1238,0.1238,0.1238,0,0,0.1228,0.123,0.1238,0.1243,0.1248,0.1251,0.125,0.1269,0.127,0.1258,0.1273,0.1279,0.1263,0.1271,0.128,0.1266,0.1319,0.1284,0.1288,0.1295,0.1345,0.1356,0.1366,0.124,0.124,0.1239,0,0,0.1243,0.1258,0.127,0.1274,0.129,0.1283,0.1297,0.1299,0.1305,0.1316,0.131,0.133,0.1324,0.1315,0.1307,0.1338,0.1347,0.1347,0.1375,0.1425,0.1434,0.1443,0.1467,0.1478,0.1346,0.1346,0.1346,0,0.126,0.1265,0.1274,0.1283,0.1285,0.1301,0.1304,0.1306,0.1314,0.1318,0.1333,0.1353,0.1341,0.1344,0.1357,0.1348,0.1379,0.1349,0.1431,0.1441,0.1449,0.1471,0.1483,0.1348,0.1347,0.1347,0.1347,0,0.1268,0.1283,0.1293,0.1303,0.1307,0.1318,0.1317,0.1332,0.1349,0.1353,0.1386,0.1388,0.1405,0.1404,0.1386,0.1436,0.1439,0.1434,0.1415,0.1463,0.1483,0.1494,0.135,0.135,0.1349,0.1349,0,0,0.1271,0.1294,0.13,0.1296,0.1318,0.1308,0.1324,0.1326,0.1346,0.1377,0.1408,0.1412,0.145,0.1446,0.1446,0.1482,0.1556,0.1492,0.1494,0.1513,0.1668,0.153,0.1529,0.1582,0.1584,0.1586,0.1654,0,0.1275,0.1289,0.1296,0.1296,0.1296,0.1307,0.1313,0.1324,0.1355,0.1395,0.1421,0.1462,0.1454,0.149,0.1526,0.1555,0.1591,0.1538,0.1621,0.1623,0.1493,0.1539,0.1594,0.1663,0.1665,0.1667,0.1669,0,0.1271,0.1278,0.129,0.1279,0.128,0.1287,0.1301,0.1313,0.1371,0.1409,0.1475,0.1513,0.157,0.1572,0.1655,0.1633,0.166,0.1677,0.168,0.1549,0.1506,0.1609,0.1689,0.1687,0.1686,0.1685,0.1683,0,0.1246,0.1257,0.1263,0.1265,0.1273,0.1276,0.1283,0.1328,0.1349,0.1449,0.1506,0.1576,0.1635,0.1695,0.1728,0.1718,0.182,0.1803,0.1698,0.1688,0.1777,0.1767,0.1871,0.1871,0.1871,0.1871,0.1871,0,0.1224,0.1224,0.1257,0.1257,0.1256,0.1268,0.129,0.1324,0.1396,0.1438,0.1533,0.1584,0.168,0.1737,0.1765,0.1759,0.1852,0.1711,0.1702,0.1787,0.1778,0.1784,0.1773,0.1874,0.1873,0.1872,0.1872,0,0.1192,0.1221,0.1225,0.1245,0.1251,0.1257,0.1287,0.1299,0.1398,0.147,0.1514,0.1616,0.1693,0.1755,0.1839,0.1783,0.1803,0.1776,0.1859,0.1852,0.1631,0.1621,0.1671,0.1667,0.1663,0.166,0.1658,0,0.1171,0.1181,0.1221,0.1218,0.123,0.1243,0.1244,0.1307,0.1333,0.1466,0.1492,0.1602,0.1661,0.167,0.1738,0.1774,0.175,0.1735,0.1682,0.1627,0.1614,0.1609,0.1605,0.1652,0.1651,0.165,0.1649,0,0.1129,0.1172,0.1178,0.1188,0.1188,0.1175,0.1193,0.1203,0.1284,0.1395,0.1443,0.1479,0.1549,0.1593,0.1626,0.1647,0.1732,0.1698,0.1705,0.1655,0.1604,0.1594,0.1593,0.1637,0.1639,0.164,0.1641,0,0.1106,0.111,0.1137,0.1123,0.1129,0.1089,0.1102,0.111,0.1147,0.13,0.1307,0.143,0.1531,0.1526,0.1561,0.1566,0.1542,0.1477,0.1495,0.1509,0.1421,0.133,0.1279,0,0,0,0,0,0.107,0.1057,0.1048,0.102,0.1021,0.1019,0.105,0.1069,0.1167,0.1168,0.1235,0.1299,0.1342,0.1394,0.137,0.1479,0.1541,0.144,0.1473,0.1569,0.1583,0.1492,0,0,0,0,0,0,0.104,0.1047,0.1028,0.0938,0.0897,0.0876,0.0892,0.0948,0.0954,0.1076,0.1114,0.1211,0.1282,0.1359,0.1349,0.1364,0.1351,0.1516,0.1512,0.1561,0.1574,0.1585,0.1496,0,0,0,0,0]},{"header":{"parameterUnit":"m.s-1","parameterCategory":2,"la1":30.2991,"la2":30.254,"lo1":-89.0895,"lo2":-89.0444,"dy":0.0017,"dx":0.0017,"nx":28,"ny":28,"refTime":"2025-06-01T09:00:00:Z","depth":"4","parameterNumber":3,"parameterNumberName":"V-component_of_CURRENTS"},"data":[0,0,0,0,0,0,0,0,0,0,0,0,0,0,0,0,0,0,0,0,0,0,0,0,0,0,0,0,0,0,0,0,0,0,0,0,0,0,0,0,0,0,0,0,0,0,0,0,0,0,0,0,0,0,0,0,0,0,0.0181,0.0181,0,0.0179,0.0179,0.0179,0.0186,0.0187,0.0187,0.0187,0.0196,0.0196,0.0196,0,0,0,0,0,0,0,0,0,0,0,0,0,0.0174,0.0174,0.0181,0.0181,0.0181,0.0179,0.0179,0.0179,0.0186,0.0187,0.0187,0.0187,0.0196,0.0196,0.0196,0,0,0,0,0,0,0,0,0,0,0,0,0,0.0175,0.0174,0.0181,0.0185,0.0185,0.0179,0.0179,0.0179,0.0186,0.0187,0.0187,0.0187,0.0196,0.0196,0.0196,0.019,0,0,0.0196,0.0196,0,0,0,0,0,0,0,0,0.0175,0.0175,0.0184,0.0184,0.0185,0.0183,0.0179,0.0183,0.0186,0.0186,0.0187,0.0187,0.0192,0.0193,0.0191,0.019,0.019,0.0196,0.0196,0.0196,0.0196,0,0,0,0,0,0,0,0.0175,0.0175,0.018,0.0184,0.0184,0.018,0.018,0.018,0.0188,0.0186,0.0186,0.0186,0.0193,0.0191,0.0192,0.0191,0.0196,0.0196,0.0196,0.0196,0.0203,0.0203,0,0,0,0,0,0,0.0176,0.0176,0.0181,0.018,0.018,0.018,0.018,0.0183,0.0187,0.0188,0.0185,0.0186,0.0191,0.0192,0.0192,0.0212,0.0196,0.0196,0.0196,0.0203,0.0203,0.0203,0,0,0,0,0,0,0.0176,0.0176,0.0181,0.0177,0.0178,0.018,0.0183,0.0183,0.0187,0.0187,0.0188,0.0189,0.0191,0.0192,0.0198,0.0211,0.0196,0.0196,0.0202,0.0203,0.0203,0.0234,0,0,0,0,0,0,0.0175,0.0176,0.018,0.0178,0.0178,0.0182,0.0182,0.0183,0.0186,0.0187,0.019,0.0191,0.0192,0.0198,0.0198,0.0211,0.0196,0.0202,0.0203,0.0203,0.0233,0.0235,0.0237,0,0,0,0,0,0.0175,0.018,0.018,0.0181,0.0183,0.0182,0.0182,0.0184,0.0185,0.0188,0.0192,0.0191,0.02,0.0198,0.0198,0.0212,0.0202,0.0202,0.0203,0.0232,0.0235,0.0237,0,0,0,0,0,0,0.0178,0.0181,0.0182,0.0187,0.0186,0.0183,0.0186,0.0185,0.019,0.0193,0.0193,0.0194,0.0204,0.02,0.0198,0.0213,0.0201,0.0201,0.0223,0.0226,0.0228,0.0242,0.0196,0,0,0,0,0,0.018,0.0186,0.0184,0.0189,0.0189,0.0188,0.0188,0.0189,0.0191,0.0193,0.0196,0.0199,0.0204,0.0209,0.0209,0.0217,0.0205,0.0225,0.0227,0.0229,0.024,0.0227,0.023,0.0204,0.0204,0.0204,0,0,0.0183,0.0185,0.0188,0.019,0.0191,0.0197,0.0189,0.0192,0.0203,0.0193,0.0209,0.0206,0.0206,0.0217,0.0222,0.0218,0.0227,0.0229,0.0231,0.0241,0.0228,0.0231,0.0233,0.0204,0.0204,0.0204,0,0,0.0191,0.0193,0.0201,0.0202,0.0203,0.0204,0.0205,0.0205,0.0212,0.022,0.0219,0.0224,0.0228,0.0236,0.0239,0.0252,0.0237,0.025,0.0279,0.0267,0.0269,0.0271,0.0247,0.0246,0.0255,0.0255,0.0255,0,0.0194,0.0206,0.0202,0.0209,0.0217,0.0209,0.0222,0.0225,0.0228,0.0242,0.023,0.0244,0.0239,0.0264,0.0269,0.026,0.0245,0.027,0.027,0.0272,0.0273,0.0248,0.0247,0.0256,0.0256,0.0256,0.0256,0,0.0208,0.0218,0.0223,0.0235,0.024,0.0248,0.0253,0.0263,0.0267,0.0274,0.0293,0.0282,0.0295,0.029,0.0285,0.0299,0.0281,0.0272,0.0265,0.0278,0.025,0.0249,0.0258,0.0258,0.0257,0.0257,0,0,0.0216,0.0231,0.0234,0.025,0.0257,0.0267,0.0287,0.0311,0.0339,0.033,0.036,0.0359,0.0353,0.0356,0.0345,0.0336,0.0323,0.0312,0.031,0.0292,0.0286,0.0269,0.0265,0.0312,0.0313,0.0313,0.0259,0,0.0231,0.0255,0.026,0.0291,0.0305,0.0313,0.0341,0.0361,0.0373,0.0397,0.0388,0.0406,0.0378,0.0386,0.037,0.0338,0.0322,0.0338,0.0274,0.0272,0.0259,0.0265,0.0313,0.0258,0.0258,0.0257,0.0257,0,0.0247,0.0263,0.0294,0.0335,0.0344,0.0363,0.0414,0.044,0.0468,0.0478,0.0486,0.0473,0.0466,0.0433,0.0382,0.0392,0.0345,0.0311,0.0308,0.0285,0.0253,0.0245,0.0254,0.0254,0.0254,0.0255,0.0255,0,0.0261,0.0293,0.0323,0.0332,0.0371,0.0398,0.0428,0.0468,0.0509,0.0531,0.055,0.0532,0.0524,0.0468,0.0391,0.0388,0.0322,0.0307,0.0246,0.0243,0.0261,0.0259,0.027,0.027,0.027,0.027,0.0271,0,0.0278,0.0304,0.0334,0.0349,0.0407,0.0426,0.0496,0.0522,0.0569,0.0618,0.0595,0.0608,0.0532,0.0482,0.0407,0.032,0.0331,0.0255,0.0233,0.0272,0.0273,0.0259,0.0258,0.0268,0.0269,0.0269,0.027,0,0.029,0.0305,0.0345,0.039,0.0413,0.0457,0.0541,0.0593,0.0626,0.0683,0.0691,0.0666,0.0603,0.0517,0.0419,0.0344,0.0262,0.0226,0.027,0.0251,0.0185,0.0186,0.0158,0.0157,0.0156,0.0155,0.0155,0,0.0297,0.0315,0.0374,0.0408,0.0432,0.0502,0.056,0.0619,0.0674,0.0715,0.074,0.0697,0.0664,0.0511,0.0414,0.0271,0.0247,0.0191,0.0195,0.0194,0.0176,0.0178,0.0181,0.0153,0.0153,0.0153,0.0153,0,0.0311,0.0332,0.0366,0.0434,0.0492,0.0573,0.0652,0.0691,0.0759,0.0781,0.0779,0.0705,0.0631,0.0511,0.04,0.0296,0.0221,0.0182,0.0183,0.0186,0.0188,0.0172,0.0175,0.015,0.015,0.0151,0.0151,0,0.0326,0.0353,0.0398,0.0463,0.054,0.0622,0.0664,0.0723,0.0777,0.0812,0.0802,0.0723,0.0679,0.0524,0.0422,0.0319,0.0291,0.024,0.0238,0.024,0.0278,0.0293,0.0274,0,0,0,0,0,0.0338,0.0371,0.0426,0.0501,0.0579,0.0629,0.072,0.0758,0.0806,0.0808,0.0811,0.0742,0.0593,0.0531,0.0428,0.0402,0.027,0.0274,0.021,0.0135,0.0138,0.0167,0,0,0,0,0,0,0.0346,0.0395,0.0423,0.0523,0.0579,0.0676,0.0734,0.0767,0.0776,0.0794,0.0723,0.0694,0.0558,0.0651,0.0417,0.0388,0.0326,0.0214,0.021,0.0133,0.0136,0.0138,0.0169,0,0,0,0,0]}]]